Location: Newark
(42.8481°N, 0.4872°E)
Time: 22:45:58
(UTC+00:00)

Vanguard 2 - Pass Details

Date: 05 November 2020
Orbit: 554 x 2937 km, 32.9° (Epoch: 29 November)

Event Time Altitude Azimuth Distance (km) Brightness Sun altitude
Rises 16:05:09 0° 213° (SSW) 3,781 12.3 5.8°
Reaches altitude 10° 16:07:52 10° 200° (SSW) 3,112 11.5 5.4°
Maximum altitude 16:14:25 28° 145° (SE) 2,664 10.3 4.3°
Drops below altitude 10° 16:24:00 10° 94° (E) 4,682 11.0 2.7°
Sets 16:29:12 0° 85° (E) 6,080 11.5 1.8°
